Wind_Speed
36 33 35 32 26 25 22 31 32 32 32 31 32 33 17 16 26 29 23 21 19 21 21 20 21 18 16 10 8 6 7 7 6 8 12 13 13 14 13 12 12 14 11 11 12 12 13 11 9 9 8 6 6 5
29 31 29 24 21 20 25 31 31 32 32 32 32 33 22 22 30 29 23 16 15 16 19 20 17 15 14 12 10 6 7 7 8 10 13 14 14 14 14 12 13 14 11 12 13 15 14 13 10 9 10 9 6 6
28 32 32 31 23 23 29 31 31 33 32 33 35 36 25 27 30 32 26 21 16 15 17 19 18 16 16 13 8 7 9 9 11 14 16 14 14 16 15 14 13 14 12 14 15 15 17 12 8 9 9 8 8 7
30 30 32 31 33 28 27 31 31 33 33 35 38 40 18 32 30 31 31 23 16 18 15 17 15 12 12 13 13 15 14 15 17 18 17 15 18 18 16 13 13 15 15 17 17 18 14 12 10 10 8 8 8 9
33 29 30 29 22 21 25 31 31 32 33 37 42 36 12 37 31 30 27 21 17 14 17 17 15 14 15 15 15 16 17 20 19 18 15 15 20 21 21 14 14 18 19 17 20 15 12 12 11 11 9 8 8 8
36 29 31 31 31 27 28 28 29 31 34 38 42 21 20 38 31 29 25 21 20 17 14 12 13 15 15 14 16 17 19 19 19 18 18 18 22 23 19 12 16 19 20 19 18 17 13 15 14 11 8 7 8 7
34 33 33 35 35 32 27 25 23 27 34 39 31 8 36 36 31 30 23 19 16 13 10 8 8 10 9 9 12 15 16 19 21 22 18 19 20 17 15 13 20 21 18 17 19 15 16 17 14 10 7 9 10 9
34 33 32 30 31 29 22 19 21 27 32 29 10 31 40 33 29 24 24 21 17 12 7 8 10 9 9 8 11 9 8 9 11 14 18 19 18 16 14 22 20 15 16 18 18 17 17 14 12 11 12 13 12 10
29 31 31 28 19 20 17 14 18 24 21 7 29 44 37 30 27 27 22 17 15 8 4 5 6 12 11 11 9 7 9 5 1 5 8 10 11 13 15 20 20 17 18 17 17 15 15 15 13 15 16 17 15 13
30 26 27 24 15 14 13 10 14 15 3 23 39 34 30 27 25 24 18 16 13 4 2 5 5 10 12 7 7 5 4 5 7 10 11 8 7 12 15 19 17 17 16 15 15 15 16 16 18 20 18 15 13 14
25 19 21 20 18 13 11 7 8 1 20 29 34 30 26 23 22 20 17 13 8 5 3 4 4 7 9 4 5 6 4 2 3 5 7 11 12 12 16 15 14 16 17 19 18 17 19 19 18 15 12 12 13 14
23 15 13 17 18 15 11 5 2 9 27 29 31 30 25 24 21 17 15 12 10 7 5 5 5 4 6 2 5 5 2 1 4 4 7 12 13 10 14 13 13 14 17 19 18 16 15 14 14 13 13 14 13 12
20 15 15 17 18 16 14 7 3 14 29 30 30 32 29 23 20 15 12 9 11 11 8 6 5 5 6 5 6 7 5 2 3 8 8 8 10 11 11 11 10 12 14 14 11 13 13 13 14 13 15 16 15 14
25 18 19 18 17 17 17 11 7 15 25 33 34 34 27 22 20 18 14 13 13 14 12 10 7 4 4 7 7 5 4 2 4 4 4 4 4 6 7 9 13 13 13 14 14 14 13 13 13 15 15 12 14 16
27 21 17 16 17 18 20 15 11 13 24 29 36 37 32 25 22 22 19 16 15 16 15 14 11 9 5 4 8 10 9 7 5 5 6 4 3 2 1 3 5 8 11 12 13 13 13 13 16 18 17 15 15 14
18 22 20 12 18 19 22 18 15 15 20 28 30 34 36 33 28 25 23 21 19 16 14 14 13 11 9 8 6 9 12 13 11 9 7 7 7 6 5 5 5 7 10 13 13 14 15 16 16 14 13 12 13 13
20 22 18 15 16 20 24 22 19 18 15 14 24 32 33 32 31 30 29 27 24 23 21 18 18 16 12 11 10 10 11 12 14 15 15 15 13 11 12 11 10 10 10 10 13 17 18 18 18 19 18 17 18 18
24 23 17 19 17 22 24 26 21 18 17 17 16 21 29 36 37 34 32 32 30 28 27 25 24 23 22 18 18 17 16 14 13 15 17 18 20 21 20 18 17 16 15 15 14 15 15 16 16 15 15 14 14 14
22 22 19 19 18 24 25 28 24 21 20 19 17 16 15 20 26 31 34 35 36 36 35 33 32 29 29 28 28 26 26 26 25 23 21 21 21 21 22 24 26 25 23 22 23 22 22 21 20 19 19 19 19 19
20 18 19 21 20 24 27 28 28 25 23 20 17 17 18 19 18 17 18 20 22 26 29 32 34 37 38 38 38 38 37 36 35 34 32 31 30 28 26 25 25 25 27 28 30 31 30 29 28 28 28 27 27 25
25 20 18 20 20 23 27 26 30 27 24 22 19 19 19 18 19 21 21 20 19 18 20 20 19 18 15 15 17 22 33 41 45 44 44 43 41 38 38 36 34 33 32 31 30 30 30 30 32 34 35 36 35 34
28 23 18 19 20 23 27 28 29 30 28 25 21 19 20 19 18 19 17 17 18 20 17 18 20 21 22 22 24 28 28 29 30 30 36 43 47 49 48 47 45 45 43 42 40 39 38 36 35 34 33 32 33 35
29 24 19 19 21 23 26 28 30 31 29 24 23 22 20 19 19 19 19 18 20 21 19 18 18 19 23 26 24 21 19 21 24 27 31 32 32 35 41 47 51 52 51 51 51 49 48 47 44 42 40 38 35 33
30 26 23 21 21 22 25 28 29 31 28 24 23 22 22 22 21 19 17 20 23 21 19 20 21 22 23 23 25 26 25 26 28 29 31 32 33 36 39 43 44 45 44 44 47 48 47 47 50 51 50 48 45 41
32 29 24 20 20 21 24 27 28 29 27 25 26 25 21 20 22 22 19 21 22 21 21 22 23 24 26 26 27 29 29 30 32 35 37 38 39 39 41 42 43 44 46 48 51 52 52 50 47 46 44 46 46 45
29 30 24 20 21 22 23 26 27 27 26 26 26 23 21 22 22 20 20 23 24 24 24 24 25 27 28 28 30 33 36 37 37 39 42 43 44 44 45 46 48 51 51 51 53 54 54 54 54 53 51 48 44 43
29 26 22 21 21 21 22 23 25 25 25 26 24 22 23 23 22 22 23 23 24 25 25 26 27 28 29 31 34 38 40 41 41 43 45 47 49 49 49 50 53 56 56 57 57 59 60 61 61 60 59 57 53 48
26 23 22 22 22 22 23 22 23 24 23 22 21 22 23 22 22 25 25 24 26 26 27 27 27 30 33 35 38 40 42 43 44 46 49 52 54 56 57 57 57 57 55 56 57 58 58 58 59 60 61 61 60 55
25 26 24 21 22 22 21 20 21 22 23 24 24 22 21 23 25 24 24 25 25 26 27 28 30 32 35 38 41 43 45 47 49 52 55 57 58 59 61 60 57 56 56 56 55 56 56 55 54 53 54 56 57 55
24 26 24 21 21 21 20 20 21 23 22 22 21 21 22 23 24 24 24 24 23 25 28 29 31 34 37 40 44 47 50 51 54 57 58 56 54 56 56 54 52 49 47 45 44 45 46 48 48 46 46 48 51 53
23 24 25 24 21 21 22 22 23 22 21 21 22 22 22 21 21 22 22 23 23 25 27 30 32 36 39 42 45 48 53 56 57 58 57 53 51 48 43 37 34 33 33 32 33 34 35 36 37 40 43 44 46 51
25 24 24 24 23 24 24 25 23 21 21 21 22 22 20 19 19 21 23 21 23 26 28 31 34 37 40 44 47 51 53 52 51 51 49 44 36 30 28 26 25 23 22 22 23 25 28 32 35 37 37 43 46 48
23 23 25 25 25 26 27 25 23 21 21 21 20 18 17 18 18 19 20 21 23 26 29 32 35 38 42 46 49 51 50 48 48 45 35 27 24 21 19 18 17 16 17 16 17 19 24 27 28 31 40 45 43 41
Wind_Direction
307 304 312 308 304 295 291 298 310 318 323 329 335 339 335 192 187 183 190 195 190 192 195 201 202 206 199 199 198 216 234 236 232 217 216 219 227 232 232 238 256 257 255 243 229 230 233 223 221 238 246 268 291 312
296 294 306 308 287 285 294 302 307 315 320 325 328 330 333 202 197 201 202 195 188 195 200 203 206 203 207 209 221 244 247 251 245 229 224 234 241 234 239 244 255 256 251 237 229 235 227 223 220 241 247 250 272 293
279 289 293 295 298 294 298 303 304 311 319 321 322 323 324 204 200 203 199 188 195 197 205 196 197 205 209 214 224 243 250 257 266 251 254 248 238 231 253 260 251 241 239 229 230 226 219 216 216 230 229 238 264 281
276 279 285 293 288 293 298 300 303 310 316 318 317 317 303 197 201 198 201 207 196 187 188 186 188 196 217 232 238 252 261 270 273 256 247 242 236 245 264 259 236 231 225 224 230 220 211 215 208 224 234 252 273 285
283 279 281 285 286 289 288 295 303 309 314 316 312 314 246 189 192 185 193 198 202 190 194 199 217 227 242 242 243 250 261 265 265 248 244 244 248 252 265 260 236 224 223 224 226 209 215 214 211 223 250 267 277 277
289 287 284 282 273 276 281 291 301 311 314 316 310 309 193 181 184 185 186 194 177 176 180 206 232 249 254 257 256 260 263 263 252 249 251 257 258 261 259 241 240 224 221 225 217 206 206 215 210 226 244 275 285 285
289 293 286 291 280 294 290 291 307 315 316 312 313 239 171 175 179 176 177 177 177 183 203 220 240 240 238 251 269 273 265 262 257 252 251 248 253 250 231 220 232 221 222 222 209 209 215 208 213 221 249 285 276 274
295 292 294 298 291 296 290 296 316 320 317 318 310 164 162 167 170 169 180 179 179 175 201 251 257 231 221 263 277 269 258 268 253 240 230 234 235 243 227 220 222 213 213 205 209 213 204 205 216 239 263 282 278 265
302 305 296 301 294 286 283 304 322 325 327 352 149 153 159 162 163 168 171 174 171 181 231 290 261 221 222 265 267 262 242 263 348 191 188 208 223 218 220 216 206 201 200 203 219 208 206 216 235 260 273 271 261 266
296 299 294 300 278 266 281 311 329 334 86 146 154 157 161 162 167 175 171 175 180 195 266 330 288 223 228 257 256 252 249 266 251 234 203 156 167 211 225 214 202 196 205 214 217 207 217 232 255 268 268 256 250 266
292 305 297 288 289 267 270 299 335 89 152 156 165 171 170 170 177 183 185 183 182 205 299 339 342 231 227 238 232 230 243 295 282 240 222 219 214 221 217 208 202 208 211 211 209 214 229 244 258 261 249 243 258 260
286 300 304 273 276 262 252 255 317 166 168 169 179 181 181 184 191 194 192 197 209 218 258 314 338 282 236 197 174 199 191 76 176 204 192 208 206 198 205 210 211 210 216 219 219 226 241 251 247 248 260 251 255 250
285 303 289 279 283 253 238 210 200 184 183 181 186 187 189 198 201 193 198 215 228 233 246 282 314 323 252 228 173 154 134 250 270 203 217 216 210 204 209 212 216 220 225 228 230 234 240 245 253 263 259 238 247 246
274 296 280 278 266 243 227 195 198 202 192 193 194 195 203 202 206 209 223 232 231 236 237 256 272 303 273 247 231 232 176 207 303 293 237 182 160 146 163 198 214 222 225 227 231 234 237 243 253 251 245 251 252 252
275 271 263 277 246 231 224 192 197 211 203 200 203 206 209 215 218 223 234 235 245 246 245 253 263 265 264 258 245 253 262 262 263 297 314 307 266 205 177 191 214 229 225 228 233 241 249 247 247 241 240 233 236 238
239 240 253 287 238 223 227 196 197 211 210 210 208 209 210 219 227 230 231 237 243 249 255 252 258 260 257 255 254 244 244 250 252 256 264 280 287 279 259 247 242 223 221 222 223 230 231 222 219 222 227 229 225 222
229 240 248 255 250 221 231 203 199 210 208 214 219 218 220 223 227 229 231 236 241 246 253 255 255 257 259 257 256 258 253 252 253 255 256 257 260 263 262 260 253 245 241 236 230 228 227 226 227 231 237 241 245 248
233 237 246 251 255 222 230 218 200 206 204 206 215 218 220 226 232 233 237 239 241 247 251 253 255 255 258 264 264 263 260 258 258 257 257 257 255 254 254 255 257 259 259 257 251 243 239 237 238 241 242 246 250 252
238 238 236 241 244 225 223 230 206 203 209 206 213 223 226 228 232 236 239 242 245 248 250 253 256 258 260 258 260 263 266 266 263 259 258 257 257 256 257 257 258 258 259 261 262 263 261 258 255 257 258 258 259 261
238 243 235 238 242 226 218 229 220 204 211 210 211 220 228 231 231 229 231 238 244 248 254 257 258 259 259 258 258 259 261 263 264 266 264 261 258 256 254 253 253 253 256 258 260 261 261 262 262 263 263 265 264 264
240 245 240 238 243 228 218 221 229 212 209 213 213 220 226 230 235 235 238 240 243 245 246 247 249 255 259 260 261 263 263 262 262 261 263 264 264 262 261 260 258 258 259 260 260 263 264 264 264 263 263 265 266 268
238 243 246 243 243 230 218 215 224 225 213 213 215 221 231 233 236 236 236 241 241 242 251 258 252 248 252 253 271 280 273 266 265 268 264 260 260 262 263 263 263 262 263 263 263 264 264 264 265 266 266 266 267 269
235 237 243 246 243 232 219 218 221 224 224 220 222 225 230 235 241 244 245 246 246 250 262 264 258 255 261 270 273 268 269 273 273 271 270 270 270 267 265 264 263 263 264 264 263 264 265 265 265 265 264 264 264 264
232 236 247 244 240 234 224 220 220 223 224 225 229 232 232 238 240 246 247 251 255 258 259 260 263 267 270 273 272 270 271 276 280 281 279 276 272 271 267 263 261 260 259 260 263 264 264 264 263 261 261 262 263 265
228 235 243 244 241 233 224 219 219 220 218 222 227 231 234 241 246 247 249 255 262 265 267 272 272 275 282 283 282 280 279 280 282 284 285 285 282 278 275 273 270 267 265 264 261 261 261 261 261 262 261 257 256 257
228 233 240 244 240 229 221 219 218 219 220 223 226 231 236 241 249 252 250 260 265 268 272 275 278 282 282 282 283 284 285 285 286 285 285 284 281 279 276 273 271 269 266 264 262 261 258 257 256 254 255 255 254 252
226 230 238 248 234 220 215 215 215 218 222 225 228 233 241 248 255 257 256 255 258 263 270 275 277 279 281 284 285 285 286 287 287 287 286 285 284 281 278 276 275 273 271 267 263 259 257 254 252 250 249 248 247 246
223 227 239 240 227 215 213 215 220 224 228 233 237 243 247 252 256 256 257 258 263 269 272 274 277 281 284 287 288 289 290 291 292 293 292 292 290 288 287 285 282 279 274 270 266 262 257 253 250 247 244 242 241 239
221 228 235 234 225 219 217 220 226 230 231 233 235 239 245 251 255 257 258 262 266 270 274 279 284 288 291 293 294 294 295 298 299 299 299 298 296 293 291 288 284 280 274 269 264 259 256 251 247 243 239 235 231 228
224 231 234 234 228 223 224 228 229 231 233 234 239 245 249 254 257 259 262 266 271 278 282 287 292 296 298 299 300 303 303 303 303 302 302 301 297 293 291 288 285 279 274 268 262 256 250 245 242 238 233 229 224 216
227 230 229 230 231 229 228 232 235 236 236 239 244 249 251 251 255 259 264 272 281 285 291 296 299 300 302 304 305 307 307 307 308 307 306 305 302 298 293 288 283 277 270 264 256 248 241 235 228 224 222 218 212 206
227 229 227 226 228 231 233 235 237 237 237 240 246 246 245 250 257 270 277 284 290 295 298 301 304 306 307 308 310 310 310 312 312 311 311 309 303 299 296 292 284 276 265 256 247 234 223 217 214 213 209 198 195 202
232 232 228 227 230 233 233 233 231 231 237 240 240 241 248 260 269 275 284 292 298 302 304 306 309 311 313 313 313 315 318 318 318 318 316 312 309 304 299 296 285 269 255 243 228 216 208 207 204 199 188 183 194 204
Height
5581 5577 5574 5569 5567 5565 5565 5563 5561 5557 5554 5550 5545 5542 5538 5540 5544 5546 5547 5548 5549 5551 5553 5555 5558 5561 5564 5567 5569 5572 5573 5573 5574 5575 5577 5578 5580 5582 5584 5586 5587 5589 5591 5593 5595 5596 5599 5600 5602 5604 5605 5604 5604 5604
5572 5570 5568 5565 5562 5560 5559 5556 5554 5550 5547 5543 5539 5536 5533 5534 5539 5543 5545 5547 5548 5550 5552 5555 5558 5561 5564 5566 5568 5569 5571 5571 5572 5573 5575 5577 5578 5579 5581 5584 5585 5587 5589 5590 5592 5593 5595 5597 5599 5601 5601 5602 5603 5603
5564 5562 5561 5559 5556 5554 5552 5548 5546 5543 5539 5536 5531 5527 5524 5526 5532 5538 5542 5545 5546 5548 5551 5554 5557 5560 5562 5564 5566 5568 5568 5569 5570 5571 5572 5573 5575 5577 5579 5581 5582 5584 5584 5586 5588 5590 5591 5594 5596 5598 5599 5600 5601 5601
5555 5554 5553 5550 5549 5547 5545 5541 5538 5535 5531 5527 5522 5516 5513 5517 5526 5532 5539 5542 5545 5547 5549 5553 5556 5558 5560 5562 5564 5565 5565 5566 5566 5566 5567 5569 5571 5572 5574 5577 5579 5579 5580 5581 5583 5586 5589 5591 5593 5595 5596 5598 5598 5598
5546 5546 5545 5542 5542 5540 5538 5534 5530 5526 5523 5518 5512 5505 5503 5510 5520 5528 5534 5540 5542 5546 5548 5552 5554 5556 5558 5559 5560 5561 5561 5561 5561 5562 5563 5565 5566 5568 5569 5572 5573 5573 5575 5578 5579 5584 5586 5588 5590 5592 5594 5595 5595 5596
5538 5537 5537 5535 5534 5532 5530 5526 5522 5519 5514 5509 5501 5495 5497 5507 5517 5525 5532 5537 5541 5544 5547 5550 5552 5553 5554 5555 5555 5556 5556 5556 5556 5557 5559 5560 5560 5562 5564 5567 5566 5568 5571 5573 5577 5580 5583 5586 5588 5590 5591 5592 5592 5593
5531 5530 5528 5527 5525 5525 5522 5520 5515 5512 5507 5499 5490 5488 5496 5508 5516 5525 5533 5537 5541 5543 5546 5548 5549 5550 5551 5552 5552 5551 5551 5551 5551 5552 5554 5555 5555 5556 5560 5562 5561 5564 5567 5570 5574 5577 5580 5581 5584 5587 5588 5589 5589 5590
5524 5523 5522 5520 5519 5519 5517 5514 5511 5506 5500 5491 5483 5488 5501 5510 5518 5525 5531 5536 5539 5543 5545 5546 5546 5546 5548 5549 5548 5547 5547 5546 5545 5545 5547 5549 5551 5553 5555 5555 5558 5561 5563 5566 5571 5574 5576 5579 5582 5584 5585 5586 5586 5587
5518 5516 5515 5513 5512 5513 5512 5510 5506 5502 5496 5489 5490 5497 5505 5514 5521 5527 5532 5536 5539 5543 5543 5543 5543 5544 5546 5547 5545 5545 5545 5545 5544 5544 5545 5547 5547 5549 5550 5552 5554 5557 5560 5564 5567 5569 5573 5576 5579 5580 5581 5581 5582 5583
5513 5511 5509 5508 5508 5508 5508 5506 5503 5500 5497 5497 5502 5507 5512 5518 5523 5528 5533 5536 5538 5540 5541 5541 5541 5542 5544 5544 5543 5544 5543 5543 5543 5544 5544 5544 5544 5546 5547 5549 5552 5556 5559 5561 5563 5567 5570 5573 5574 5575 5576 5576 5577 5578
5507 5506 5505 5504 5503 5504 5504 5504 5502 5501 5502 5506 5509 5513 5516 5521 5524 5528 5531 5534 5537 5539 5539 5539 5539 5540 5541 5542 5542 5542 5542 5542 5541 5541 5540 5541 5542 5544 5546 5549 5551 5554 5556 5558 5561 5564 5566 5568 5570 5571 5572 5572 5574 5574
5501 5501 5500 5500 5499 5500 5501 5501 5500 5501 5503 5507 5511 5514 5518 5521 5525 5528 5530 5533 5536 5538 5538 5538 5538 5538 5539 5540 5540 5541 5541 5541 5540 5540 5540 5539 5541 5543 5545 5548 5550 5551 5554 5556 5559 5561 5563 5564 5566 5567 5568 5569 5570 5571
5494 5495 5495 5495 5495 5496 5497 5497 5497 5499 5502 5506 5510 5514 5517 5520 5523 5526 5529 5532 5534 5536 5537 5537 5537 5536 5537 5538 5540 5539 5540 5540 5540 5540 5539 5539 5540 5541 5543 5545 5547 5549 5551 5553 5556 5557 5559 5560 5561 5563 5564 5565 5566 5567
5487 5489 5488 5488 5489 5491 5493 5493 5494 5496 5499 5503 5507 5511 5514 5518 5521 5524 5527 5529 5532 5532 5534 5535 5536 5536 5535 5535 5537 5538 5539 5539 5539 5538 5539 5539 5538 5539 5540 5542 5545 5546 5548 5549 5551 5553 5555 5556 5557 5559 5560 5560 5561 5562
5479 5482 5482 5482 5483 5485 5488 5489 5491 5493 5496 5498 5502 5507 5512 5515 5518 5521 5524 5526 5528 5529 5531 5533 5534 5534 5534 5534 5534 5535 5536 5537 5538 5538 5537 5537 5538 5538 5539 5540 5541 5542 5544 5546 5547 5549 5550 5552 5553 5555 5555 5556 5557 5558
5470 5473 5475 5475 5476 5479 5483 5484 5487 5489 5491 5494 5497 5503 5508 5511 5514 5517 5519 5521 5523 5525 5527 5529 5530 5531 5531 5532 5532 5532 5533 5534 5535 5536 5536 5536 5536 5536 5537 5538 5539 5540 5542 5543 5544 5545 5546 5548 5549 5550 5551 5552 5553 5554
5463 5465 5467 5469 5471 5473 5478 5480 5482 5485 5487 5491 5495 5499 5502 5506 5508 5511 5513 5516 5518 5520 5522 5524 5526 5527 5528 5529 5529 5529 5530 5531 5531 5532 5533 5534 5534 5535 5536 5537 5537 5538 5539 5540 5540 5541 5542 5543 5544 5545 5546 5547 5548 5549
5456 5458 5460 5463 5464 5467 5471 5474 5477 5481 5483 5485 5488 5490 5493 5497 5500 5503 5506 5510 5512 5514 5516 5518 5520 5521 5523 5524 5525 5525 5526 5526 5526 5526 5527 5528 5529 5531 5532 5533 5534 5535 5535 5536 5536 5537 5538 5538 5539 5540 5540 5541 5542 5543
5449 5451 5453 5456 5458 5460 5464 5470 5472 5476 5479 5480 5483 5486 5488 5491 5494 5496 5499 5502 5504 5506 5508 5510 5512 5515 5516 5518 5518 5519 5519 5520 5521 5521 5522 5522 5523 5523 5524 5525 5526 5527 5528 5529 5530 5531 5532 5532 5533 5534 5534 5535 5536 5537
5442 5444 5446 5448 5451 5453 5456 5463 5467 5470 5473 5476 5478 5481 5484 5486 5488 5490 5492 5494 5495 5497 5499 5501 5504 5505 5505 5507 5508 5510 5511 5511 5512 5513 5514 5514 5515 5516 5517 5518 5519 5519 5520 5522 5523 5524 5524 5525 5526 5526 5527 5528 5528 5529
5435 5437 5439 5440 5443 5446 5450 5455 5461 5464 5467 5470 5472 5475 5479 5481 5483 5485 5486 5488 5491 5492 5492 5493 5494 5496 5497 5497 5498 5498 5499 5500 5500 5501 5502 5502 5503 5505 5506 5507 5509 5510 5511 5512 5513 5514 5514 5515 5516 5517 5518 5518 5519 5520
5428 5430 5432 5434 5435 5438 5442 5448 5454 5458 5461 5464 5467 5470 5473 5475 5477 5479 5481 5483 5484 5484 5486 5486 5487 5488 5489 5490 5490 5489 5489 5489 5489 5488 5488 5490 5490 5490 5492 5494 5496 5497 5498 5499 5501 5502 5503 5504 5505 5506 5507 5507 5508 5509
5421 5424 5425 5427 5428 5431 5437 5440 5445 5450 5454 5458 5460 5464 5468 5470 5472 5474 5476 5477 5477 5478 5479 5479 5479 5480 5481 5481 5481 5481 5480 5480 5479 5479 5479 5479 5478 5477 5478 5478 5479 5480 5481 5482 5484 5486 5487 5489 5491 5493 5494 5495 5497 5498
5414 5416 5418 5419 5423 5425 5430 5433 5438 5443 5447 5451 5454 5457 5460 5463 5466 5468 5470 5471 5471 5472 5472 5472 5472 5472 5472 5472 5472 5472 5471 5471 5470 5469 5468 5467 5466 5465 5465 5465 5465 5464 5465 5466 5466 5468 5469 5471 5473 5475 5478 5480 5483 5485
5406 5409 5412 5414 5417 5420 5423 5427 5432 5436 5439 5443 5446 5449 5453 5455 5457 5460 5462 5462 5463 5464 5463 5463 5463 5463 5463 5462 5462 5461 5460 5459 5458 5456 5454 5453 5452 5451 5450 5449 5448 5447 5447 5448 5450 5452 5452 5454 5456 5458 5460 5463 5466 5470
5397 5400 5405 5409 5411 5414 5417 5421 5425 5428 5432 5435 5439 5442 5445 5447 5450 5452 5453 5453 5454 5455 5454 5454 5453 5453 5452 5451 5451 5450 5449 5446 5444 5442 5439 5438 5436 5435 5433 5432 5430 5427 5428 5430 5429 5430 5432 5434 5436 5440 5444 5447 5450 5454
5390 5396 5400 5403 5404 5407 5411 5414 5418 5421 5425 5428 5432 5435 5437 5440 5442 5444 5444 5445 5446 5446 5445 5444 5443 5442 5441 5440 5438 5437 5435 5432 5429 5426 5423 5419 5416 5414 5412 5411 5409 5405 5404 5404 5405 5406 5408 5410 5414 5418 5423 5428 5433 5438
5386 5391 5394 5396 5398 5401 5404 5408 5412 5416 5419 5421 5425 5427 5429 5432 5434 5435 5436 5436 5436 5436 5435 5434 5433 5431 5430 5428 5425 5423 5419 5417 5413 5408 5404 5398 5394 5390 5387 5385 5381 5378 5378 5376 5375 5377 5380 5384 5388 5393 5399 5406 5413 5420
5381 5385 5387 5389 5392 5395 5399 5402 5405 5409 5412 5414 5417 5420 5423 5423 5425 5426 5427 5427 5426 5426 5425 5424 5422 5420 5417 5414 5411 5408 5404 5399 5394 5389 5383 5377 5370 5363 5359 5356 5353 5351 5348 5347 5347 5349 5352 5357 5363 5368 5375 5382 5391 5400
5376 5378 5381 5384 5387 5390 5393 5396 5399 5402 5405 5408 5411 5413 5414 5415 5417 5418 5418 5418 5417 5416 5415 5413 5410 5407 5405 5401 5396 5390 5385 5380 5374 5368 5361 5355 5347 5339 5333 5328 5325 5322 5321 5321 5321 5324 5328 5333 5341 5349 5357 5365 5373 5384
5369 5371 5375 5378 5381 5384 5387 5390 5394 5397 5399 5401 5403 5405 5407 5408 5409 5409 5409 5409 5408 5406 5404 5401 5399 5396 5392 5388 5383 5376 5369 5361 5353 5345 5338 5331 5323 5316 5310 5307 5304 5302 5302 5302 5304 5306 5311 5317 5325 5332 5340 5350 5360 5374
5361 5365 5368 5371 5374 5378 5381 5384 5387 5390 5392 5394 5397 5399 5400 5400 5401 5401 5400 5400 5398 5396 5394 5391 5389 5385 5380 5374 5368 5361 5354 5346 5338 5329 5320 5312 5306 5301 5297 5294 5292 5291 5291 5291 5293 5296 5301 5306 5313 5321 5330 5342 5355 5367
5356 5359 5362 5365 5369 5372 5375 5378 5381 5383 5386 5388 5390 5391 5392 5393 5393 5394 5392 5390 5389 5386 5384 5382 5378 5373 5367 5361 5354 5347 5339 5331 5322 5313 5306 5301 5297 5294 5291 5288 5286 5285 5285 5286 5288 5291 5296 5302 5309 5317 5326 5339 5351 5361